[[{"header":{"parameterUnit":"m.s-1","parameterCategory":1,"la1":30.2991,"la2":30.254,"lo1":-89.0895,"lo2":-89.0444,"dy":0.0017,"dx":0.0017,"nx":28,"ny":28,"refTime":"2023-08-01T03:00:00:Z","depth":0,"parameterNumber":2,"parameterNumberName":"U-component_of_WINDS"},"data":[0,0,0,0,0,0,0,0,0,0,0,0,0,0,0,0,0,0,0,0,0,0,0,0,0,0,0,0,0,0,0,0,0,0,0,0,0,0,0,0,0,0,0,0,0,0,0,0,0,0,0,0,0,0,0,0,0,0,-0.6452,-0.6451,0,-0.6351,-0.635,-0.6349,-0.6269,-0.6268,-0.6268,-0.6267,-0.6162,-0.616,-0.6158,0,0,0,0,0,0,0,0,0,0,0,0,0,-0.6574,-0.6572,-0.6452,-0.6451,-0.6449,-0.6351,-0.635,-0.6348,-0.6269,-0.6268,-0.6267,-0.6266,-0.6162,-0.616,-0.6157,0,0,0,0,0,0,0,0,0,0,0,0,0,-0.6502,-0.6572,-0.6452,-0.6398,-0.6392,-0.6351,-0.635,-0.6348,-0.6269,-0.6268,-0.6267,-0.6266,-0.6163,-0.616,-0.6157,-0.6161,0,0,-0.6148,-0.6146,0,0,0,0,0,0,0,0,-0.6506,-0.6498,-0.6407,-0.6402,-0.6395,-0.6321,-0.6354,-0.6285,-0.627,-0.6316,-0.6267,-0.6265,-0.6216,-0.6208,-0.6192,-0.6156,-0.6152,-0.6147,-0.6145,-0.6144,-0.6143,0,0,0,0,0,0,0,-0.6511,-0.6501,-0.6412,-0.6406,-0.6399,-0.6378,-0.6367,-0.6341,-0.6273,-0.6312,-0.6306,-0.6295,-0.6212,-0.6195,-0.6189,-0.615,-0.6147,-0.6145,-0.6143,-0.6142,-0.6113,-0.6114,0,0,0,0,0,0,-0.6525,-0.6506,-0.6415,-0.6409,-0.6449,-0.6377,-0.6364,-0.6346,-0.6274,-0.6261,-0.6296,-0.6292,-0.6201,-0.6192,-0.6185,-0.6185,-0.6144,-0.6141,-0.6139,-0.6112,-0.6113,-0.6114,0,0,0,0,0,0,-0.6528,-0.6518,-0.6419,-0.6456,-0.6442,-0.6376,-0.6357,-0.6345,-0.6328,-0.6262,-0.6249,-0.6291,-0.62,-0.6189,-0.6168,-0.618,-0.614,-0.6137,-0.6111,-0.6112,-0.6114,-0.6186,0,0,0,0,0,0,-0.6532,-0.6519,-0.652,-0.6456,-0.644,-0.6405,-0.6357,-0.6344,-0.6323,-0.6316,-0.6254,-0.6242,-0.6198,-0.6173,-0.6165,-0.6175,-0.6135,-0.6109,-0.6111,-0.6113,-0.6182,-0.619,-0.6196,0,0,0,0,0,-0.6536,-0.6544,-0.6521,-0.651,-0.644,-0.6405,-0.6396,-0.6345,-0.6324,-0.6324,-0.6282,-0.6244,-0.618,-0.6171,-0.6161,-0.6171,-0.6108,-0.6111,-0.6113,-0.6179,-0.6188,-0.6196,0,0,0,0,0,0,-0.6611,-0.6535,-0.6508,-0.6496,-0.6458,-0.6392,-0.6391,-0.6357,-0.6324,-0.6319,-0.6256,-0.6243,-0.6229,-0.6197,-0.6189,-0.6171,-0.6139,-0.614,-0.6193,-0.6201,-0.6208,-0.6216,-0.6132,0,0,0,0,0,-0.6626,-0.6604,-0.6539,-0.6534,-0.6516,-0.6458,-0.644,-0.6404,-0.6362,-0.6346,-0.6302,-0.6262,-0.6233,-0.6215,-0.6184,-0.6177,-0.6162,-0.6179,-0.6186,-0.6192,-0.6194,-0.6188,-0.6194,-0.6123,-0.6123,-0.6123,0,0,-0.6656,-0.6612,-0.6602,-0.6548,-0.6514,-0.6493,-0.6444,-0.6424,-0.6407,-0.6342,-0.632,-0.6287,-0.6238,-0.6224,-0.6215,-0.6197,-0.621,-0.6195,-0.6201,-0.6199,-0.6191,-0.6198,-0.6204,-0.6124,-0.6124,-0.6124,0,0,-0.6702,-0.6666,-0.6658,-0.6626,-0.6576,-0.6536,-0.6535,-0.6474,-0.645,-0.6427,-0.6378,-0.6357,-0.6308,-0.6275,-0.6252,-0.6286,-0.625,-0.6277,-0.6315,-0.631,-0.6316,-0.632,-0.6333,-0.6338,-0.6279,-0.6279,-0.6279,0,-0.6746,-0.6713,-0.6659,-0.6641,-0.6619,-0.656,-0.6551,-0.6522,-0.6465,-0.645,-0.6431,-0.6369,-0.6331,-0.6309,-0.6318,-0.6301,-0.6297,-0.6284,-0.6319,-0.6323,-0.6327,-0.6338,-0.6343,-0.6283,-0.6282,-0.6282,-0.6282,0,-0.677,-0.6747,-0.6747,-0.6694,-0.6671,-0.6659,-0.6602,-0.6586,-0.6552,-0.6515,-0.6492,-0.6445,-0.6405,-0.6396,-0.6363,-0.6369,-0.636,-0.6331,-0.6297,-0.6338,-0.6348,-0.6352,-0.6288,-0.6287,-0.6286,-0.6285,0,0,-0.6859,-0.6777,-0.6778,-0.6753,-0.6693,-0.6675,-0.6659,-0.662,-0.6607,-0.6569,-0.6555,-0.6515,-0.6488,-0.6462,-0.6424,-0.642,-0.645,-0.6391,-0.6389,-0.6404,-0.6455,-0.6478,-0.6484,-0.6425,-0.6426,-0.6426,-0.6459,0,-0.6895,-0.6865,-0.6816,-0.6802,-0.6781,-0.6724,-0.671,-0.6672,-0.6637,-0.6613,-0.6574,-0.6547,-0.6513,-0.6497,-0.649,-0.6448,-0.6459,-0.6445,-0.6411,-0.6411,-0.6426,-0.6489,-0.6513,-0.6546,-0.6463,-0.6463,-0.6464,0,-0.6934,-0.69,-0.6884,-0.6827,-0.6816,-0.6805,-0.6765,-0.6743,-0.6699,-0.6673,-0.6645,-0.6604,-0.6584,-0.6554,-0.6526,-0.6517,-0.65,-0.6478,-0.6478,-0.6473,-0.644,-0.6487,-0.6555,-0.6561,-0.6469,-0.6468,-0.6468,0,-0.7002,-0.6952,-0.6936,-0.6917,-0.6849,-0.6843,-0.6814,-0.6768,-0.6748,-0.6713,-0.6699,-0.6663,-0.6643,-0.6615,-0.6565,-0.6547,-0.6543,-0.6508,-0.6521,-0.6523,-0.6523,-0.6524,-0.6591,-0.6512,-0.6512,-0.6512,-0.6511,0,-0.7048,-0.704,-0.6966,-0.6956,-0.6946,-0.689,-0.6881,-0.6847,-0.6807,-0.6789,-0.6737,-0.6722,-0.6657,-0.6633,-0.6594,-0.6577,-0.6568,-0.6547,-0.6537,-0.6552,-0.6555,-0.6541,-0.6538,-0.6513,-0.6513,-0.6512,-0.6512,0,-0.7122,-0.7072,-0.7051,-0.6989,-0.6973,-0.6969,-0.6915,-0.6903,-0.6865,-0.6843,-0.6835,-0.6775,-0.6745,-0.6692,-0.6647,-0.662,-0.6612,-0.6594,-0.6627,-0.6621,-0.6638,-0.6637,-0.6699,-0.6704,-0.6621,-0.6622,-0.6623,0,-0.7156,-0.7149,-0.7086,-0.7071,-0.7044,-0.702,-0.7,-0.6944,-0.6924,-0.6873,-0.6868,-0.6834,-0.6804,-0.6759,-0.671,-0.6676,-0.6657,-0.6681,-0.6651,-0.6667,-0.6658,-0.6659,-0.6659,-0.6688,-0.6689,-0.669,-0.6691,0,-0.722,-0.7196,-0.7168,-0.7132,-0.7109,-0.7078,-0.7044,-0.7034,-0.697,-0.6951,-0.692,-0.6897,-0.6851,-0.6818,-0.6776,-0.6746,-0.6708,-0.67,-0.6702,-0.6718,-0.6738,-0.6728,-0.6647,-0.6699,-0.6698,-0.6698,-0.6697,-0.6697,-0.7275,-0.7266,-0.7221,-0.7192,-0.7161,-0.7131,-0.7117,-0.7077,-0.705,-0.7009,-0.6977,-0.6949,-0.6905,-0.6845,-0.6817,-0.6794,-0.6776,-0.6778,-0.6779,-0.678,-0.6787,-0.6741,-0.6786,-0.6786,-0.6785,-0.6785,-0.6785,0,-0.7337,-0.7306,-0.728,-0.7234,-0.7211,-0.7178,-0.7138,-0.7122,-0.7098,-0.706,-0.7031,-0.6996,-0.6964,-0.6914,-0.6878,-0.6869,-0.6851,-0.6861,-0.6862,-0.6856,-0.6804,-0.6807,-0.6877,-0.6877,-0.6877,-0.6877,-0.6877,-0.6877,-0.7367,-0.7351,-0.7322,-0.7289,-0.7257,-0.723,-0.721,-0.7182,-0.7151,-0.7115,-0.7088,-0.7055,-0.7012,-0.6973,-0.6942,-0.6928,-0.6917,-0.6934,-0.6915,-0.6868,-0.6859,-0.6851,-0.6853,-0.6932,-0.6932,-0.6968,-0.6968,-0.6969]},{"header":{"parameterUnit":"m.s-1","parameterCategory":1,"la1":30.2991,"la2":30.254,"lo1":-89.0895,"lo2":-89.0444,"dy":0.0017,"dx":0.0017,"nx":28,"ny":28,"refTime":"2023-08-01T03:00:00:Z","depth":0,"parameterNumber":3,"parameterNumberName":"V-component_of_WINDS"},"data":[0,0,0,0,0,0,0,0,0,0,0,0,0,0,0,0,0,0,0,0,0,0,0,0,0,0,0,0,0,0,0,0,0,0,0,0,0,0,0,0,0,0,0,0,0,0,0,0,0,0,0,0,0,0,0,0,0,0,0.3255,0.3255,0,0.3226,0.3226,0.3226,0.3176,0.3175,0.3174,0.3173,0.3143,0.3144,0.3144,0,0,0,0,0,0,0,0,0,0,0,0,0,0.3264,0.3264,0.3255,0.3254,0.3254,0.3226,0.3226,0.3226,0.3176,0.3175,0.3174,0.3173,0.3143,0.3144,0.3144,0,0,0,0,0,0,0,0,0,0,0,0,0,0.325,0.3264,0.3255,0.3226,0.3223,0.3227,0.3226,0.3226,0.3177,0.3175,0.3174,0.3172,0.3143,0.3144,0.3144,0.3172,0,0,0.3144,0.3144,0,0,0,0,0,0,0,0,0.3251,0.325,0.3231,0.3228,0.3225,0.3203,0.3218,0.3208,0.3177,0.3194,0.3173,0.3172,0.3164,0.3163,0.316,0.3171,0.317,0.3144,0.3144,0.3144,0.3144,0,0,0,0,0,0,0,0.3252,0.3251,0.3244,0.3231,0.3227,0.3214,0.321,0.3216,0.3188,0.3193,0.3189,0.3186,0.3163,0.3161,0.3159,0.3169,0.3144,0.3144,0.3144,0.3144,0.3197,0.3198,0,0,0,0,0,0,0.3257,0.3252,0.3244,0.3243,0.3235,0.3215,0.3211,0.3212,0.3187,0.3182,0.3188,0.3184,0.3161,0.3159,0.3158,0.3187,0.3144,0.3144,0.3144,0.3196,0.3197,0.3199,0,0,0,0,0,0,0.3258,0.3257,0.3246,0.3246,0.3244,0.3216,0.3217,0.3212,0.321,0.3184,0.3178,0.3191,0.316,0.3158,0.3168,0.3185,0.3144,0.3144,0.3194,0.3196,0.3198,0.3246,0,0,0,0,0,0,0.3258,0.3257,0.3269,0.3247,0.3244,0.3257,0.3219,0.3212,0.321,0.3205,0.3185,0.318,0.3159,0.3168,0.3168,0.3184,0.3144,0.3193,0.3195,0.3198,0.3243,0.325,0.3255,0,0,0,0,0,0.3259,0.3284,0.327,0.3269,0.3258,0.3258,0.3256,0.3231,0.3212,0.3222,0.3205,0.3181,0.3184,0.317,0.3169,0.3186,0.3191,0.3194,0.3197,0.324,0.3248,0.3255,0,0,0,0,0,0,0.331,0.3281,0.3265,0.3284,0.3274,0.325,0.3262,0.3241,0.3236,0.3232,0.3201,0.3196,0.321,0.3199,0.3184,0.321,0.3184,0.3187,0.3216,0.3224,0.323,0.3231,0.3144,0,0,0,0,0,0.3323,0.3327,0.3301,0.3321,0.3317,0.3291,0.329,0.3271,0.3259,0.3255,0.3238,0.3227,0.3225,0.3224,0.3221,0.3242,0.3235,0.3253,0.3259,0.3264,0.3267,0.3273,0.328,0.3209,0.3209,0.3209,0,0,0.3351,0.3336,0.334,0.3331,0.3321,0.3323,0.3287,0.3293,0.3294,0.3255,0.3263,0.3251,0.3236,0.325,0.3256,0.3242,0.3285,0.3268,0.3273,0.3272,0.3277,0.3283,0.3289,0.3211,0.3211,0.321,0,0,0.3402,0.3393,0.3406,0.3396,0.3381,0.3363,0.3367,0.3345,0.3335,0.3343,0.3313,0.3313,0.3312,0.3301,0.3296,0.3341,0.3317,0.3341,0.3372,0.3379,0.3384,0.3389,0.3402,0.3407,0.3344,0.3344,0.3344,0,0.3439,0.3442,0.3416,0.3422,0.3417,0.3382,0.3394,0.3386,0.3371,0.3368,0.3353,0.3347,0.3335,0.3345,0.3355,0.3354,0.3354,0.3342,0.3386,0.339,0.3394,0.3406,0.3411,0.3346,0.3346,0.3346,0.3346,0,0.3486,0.3489,0.3501,0.3486,0.3483,0.3493,0.3466,0.3466,0.3447,0.3431,0.3437,0.3421,0.3412,0.3414,0.3396,0.342,0.3411,0.3392,0.3364,0.3404,0.3414,0.3419,0.335,0.3349,0.3349,0.3348,0,0,0.3568,0.3537,0.3542,0.3533,0.3513,0.3514,0.3521,0.3512,0.3511,0.3502,0.3504,0.3503,0.3483,0.3477,0.3458,0.3464,0.3496,0.3443,0.3442,0.345,0.3518,0.3531,0.3536,0.3482,0.3482,0.3483,0.3518,0,0.3613,0.3622,0.3597,0.3613,0.3613,0.3579,0.3584,0.3572,0.3556,0.3553,0.3536,0.3533,0.351,0.3505,0.351,0.3491,0.3509,0.3489,0.3481,0.3482,0.3483,0.3542,0.3557,0.359,0.3522,0.3523,0.3523,0,0.3666,0.3658,0.3673,0.3649,0.3648,0.3653,0.3641,0.364,0.3624,0.3612,0.3604,0.3581,0.3584,0.3559,0.3561,0.3548,0.3544,0.3534,0.3535,0.3531,0.3503,0.3537,0.3601,0.3605,0.353,0.3529,0.3529,0,0.372,0.3713,0.372,0.3714,0.3688,0.3691,0.368,0.3663,0.3659,0.3649,0.3645,0.3636,0.363,0.3623,0.3597,0.3582,0.3601,0.3574,0.3588,0.3589,0.3592,0.3592,0.3653,0.3595,0.3594,0.3594,0.3594,0,0.3771,0.378,0.3743,0.3748,0.3756,0.3728,0.3737,0.3722,0.3707,0.3706,0.3678,0.3677,0.3645,0.3641,0.3621,0.3624,0.3622,0.3611,0.3605,0.3612,0.3613,0.3607,0.3603,0.3596,0.3595,0.3595,0.3595,0,0.3832,0.3808,0.3813,0.3786,0.378,0.3787,0.3764,0.3766,0.3748,0.3748,0.3746,0.3718,0.3711,0.3685,0.3673,0.3659,0.3667,0.3658,0.3672,0.3668,0.3682,0.368,0.3739,0.3744,0.3685,0.3686,0.3687,0,0.3864,0.387,0.3844,0.3842,0.3832,0.3829,0.3823,0.3795,0.379,0.3771,0.3774,0.3765,0.3756,0.3747,0.3724,0.3714,0.3702,0.3724,0.37,0.3706,0.3699,0.3697,0.3696,0.3728,0.3729,0.3729,0.373,0,0.3923,0.391,0.3904,0.3893,0.3887,0.3877,0.3865,0.3865,0.3833,0.3829,0.3821,0.3814,0.38,0.3791,0.3776,0.3763,0.374,0.3738,0.374,0.3745,0.3752,0.3745,0.3683,0.3736,0.3735,0.3735,0.3735,0.3734,0.3968,0.3971,0.3952,0.3945,0.3933,0.3922,0.3922,0.3903,0.3897,0.3883,0.3867,0.386,0.3842,0.382,0.3809,0.3802,0.379,0.3794,0.3794,0.3795,0.3797,0.3756,0.38,0.38,0.38,0.3799,0.3799,0,0.4022,0.4009,0.4003,0.3986,0.398,0.396,0.3945,0.3941,0.3936,0.3921,0.3912,0.3902,0.3892,0.3869,0.3856,0.3855,0.3844,0.3853,0.3851,0.3848,0.381,0.3808,0.3861,0.3861,0.3861,0.3861,0.3861,0.3861,0.405,0.4052,0.4037,0.4032,0.4018,0.4012,0.4005,0.3994,0.3981,0.3971,0.3962,0.3947,0.3928,0.3913,0.3902,0.3896,0.3891,0.3902,0.3892,0.3857,0.3851,0.3845,0.3843,0.3902,0.3902,0.3929,0.3929,0.3929]}]]